{"data":{"norad_id":66228,"intl_designator":"2025-244Y","name":"STARLINK-35731","alt_names":[],"object_type":"PAYLOAD","status":"ACTIVE","operator":null,"country":"US","launch_date":"2025-10-28","launch_site_code":"AFWTR","launch_vehicle":null,"mission":null,"orbit_class":"UNKNOWN","rcs_meters":null,"size_class":null,"mass_kg":null,"dimensions":null,"purposes":["comms"],"wikipedia_slug":null,"has_3d_model":false,"image_url":null,"decayed_at":null,"tle_current":{"epoch":"2026-09-20T14:33:41.319072Z","epoch_age_seconds":87494,"freshness":"FRESH","line1":"1 66228U 25244Y   26263.60672823  .00013120  00000+0  39865-3 0  9994","line2":"2 66228  53.1593  40.8888 0001061 102.1454 257.9667 15.34408687 51557","mean_motion":15.34408687,"eccentricity":0.0001061,"inclination_deg":53.1593,"raan_deg":40.8888,"arg_perigee_deg":102.1454,"mean_anomaly_deg":257.9667,"bstar":0.00039865,"rev_number":5155,"period_min":93.847226765603,"perigee_km":461.95161032418,"apogee_km":463.40323114426,"semimajor_km":6840.8144207342,"source":"CELESTRAK","updated_at":"2026-09-21T09:00:35.844260Z"}}}